Location: Gönnheim
(49.4488°N, 8.2383°E)
Time: 20:40:12
(UTC+00:00)

Terra - Pass Details

Date: 19 May 2025
Orbit: 690 x 691 km, 98.0° (Epoch: 20 June)

Event Time Altitude Azimuth Distance (km) Brightness Sun altitude
Exits shadow 20:50:11 - 191° (S) 2,414 4.2 -12.7°
Reaches altitude 10° 20:50:55 10° 194° (SSW) 2,138 4.0 -12.8°
Maximum altitude 20:55:16 38° 263° (W) 1,052 3.0 -13.2°
Drops below altitude 10° 20:59:40 10° 332° (NNW) 2,154 5.8 -13.6°
Sets 21:02:05 0° 340° (NNW) 3,076 6.8 -13.8°
